{"data":{"norad_id":49739,"intl_designator":"2021-115R","name":"STARLINK-3155","alt_names":[],"object_type":"PAYLOAD","status":"ACTIVE","operator":null,"country":"US","launch_date":"2021-12-02","launch_site_code":"AFETR","launch_vehicle":null,"mission":null,"orbit_class":"UNKNOWN","rcs_meters":null,"size_class":null,"mass_kg":null,"dimensions":null,"purposes":["comms"],"wikipedia_slug":null,"has_3d_model":false,"image_url":null,"decayed_at":null,"tle_current":{"epoch":"2026-09-19T22:09:20.803680Z","epoch_age_seconds":95201,"freshness":"FRESH","line1":"1 49739U 21115R   26262.92315745  .00030694  00000+0  81516-3 0  9991","line2":"2 49739  53.1603 353.6992 0003348   6.5954 353.5094 15.38035116264897","mean_motion":15.38035116,"eccentricity":0.0003348,"inclination_deg":53.1603,"raan_deg":353.6992,"arg_perigee_deg":6.5954,"mean_anomaly_deg":353.5094,"bstar":0.00081516,"rev_number":26489,"period_min":93.625950735445,"perigee_km":449.63349168731,"apogee_km":454.20689798497,"semimajor_km":6830.0571948361,"source":"CELESTRAK","updated_at":"2026-09-20T09:00:39.405816Z"}}}